Location: Ústí nad Labem
(50.6611°N, 14.0531°E)
Time: 20:29:21
(UTC+02:00)

Envisat - Pass Details

Date: 05 March 2024
Orbit: 762 x 764 km, 98.3° (Epoch: 13 April)

Event Time Altitude Azimuth Distance (km) Brightness Sun altitude
Rises 05:28:27 0° 3° (N) 3,243 6.4 -11.9°
Reaches altitude 10° 05:31:37 10° 342° (NNW) 2,312 5.4 -11.4°
Maximum altitude 05:34:34 16° 306° (NW) 1,933 4.6 -11.0°
Enters shadow 05:36:28 13° 282° (WNW) 2,094 4.6 -10.7°
